Lid_Strength_Index
0 -0 -0 -0 -0 -0 0 0 0 0 0 0 0 0 0 0 0 0 0 0 1 1 1 1 2 2 3 2 3 3 4 3 4 2 1 -0 -1 -0 -1 -1 -0 -0 1
0 0 0 -0 -0 0 0 0 -0 0 0 0 0 1 1 0 0 0 1 1 1 1 1 2 2 2 3 2 2 2 3 1 2 3 1 1 -0 -1 -1 -1 -1 -0 -1
0 0 0 -0 0 0 0 -0 -0 0 -0 0 0 1 1 1 1 0 1 1 1 1 1 2 2 2 2 2 2 3 0 1 1 1 2 1 0 -0 -0 -1 -1 -2 -1
1 0 0 0 -0 -0 -0 -0 -0 -0 0 0 -0 -0 -0 0 0 0 0 1 1 1 1 0 0 1 1 1 1 1 -0 1 1 1 1 1 1 -0 -0 1 1 -0 -0
1 1 0 -0 -0 -0 -0 -0 -0 -0 -0 -0 0 -0 -0 -0 0 0 0 0 1 1 0 0 0 0 2 1 0 -0 -0 0 1 1 2 1 1 1 2 1 1 0 -0
0 1 0 0 0 -0 -0 -0 -0 -0 -0 -0 -0 0 0 0 7 4 1 0 0 0 1 0 2 3 5 6 5 5 0 -0 0 1 1 2 1 1 0 1 1 2 3
1 1 0 0 0 0 0 0 0 -0 -1 -0 -0 -0 0 0 7 6 3 -0 -0 0 0 0 0 1 1 -0 4 5 5 5 4 -1 1 0 1 0 -0 1 1 1 2
1 1 0 0 1 0 0 0 0 -0 -0 -0 -0 -0 -0 1 7 7 5 -0 -0 -0 -0 -1 -0 -0 0 -0 -0 -0 -0 -0 -1 -0 -1 -1 -1 -1 -1 -0 -0 0 0
1 1 1 0 1 0 1 0 0 0 0 0 -0 -0 -0 -0 8 8 4 -0 0 0 -0 -1 -0 -0 6 6 -0 0 -0 -0 7 7 7 9 10 10 7 -0 1 2 2
1 1 0 0 0 0 0 1 0 0 0 0 0 -0 1 -0 9 9 6 0 0 0 -1 -0 7 1 8 8 -0 -0 0 -0 -0 2 0 3 7 3 9 3 1 3 3
0 0 0 0 0 0 0 -0 0 0 0 0 0 -0 -0 0 2 9 9 0 1 2 2 2 3 9 9 10 10 -1 1 2 2 2 2 2 1 1 2 2 2 4 5
0 0 0 0 0 0 0 0 0 0 1 1 1 0 0 -1 3 9 10 10 6 0 1 1 3 10 10 10 9 9 9 8 3 3 3 2 2 2 2 2 0 1 2
1 1 0 0 0 0 1 1 1 1 1 1 1 1 1 0 -0 8 10 10 8 0 -0 6 10 11 11 11 11 10 11 4 3 3 2 1 1 1 1 1 -0 1 2
1 1 1 1 1 0 0 1 1 1 1 1 1 1 1 1 0 0 2 4 8 4 5 2 3 5 6 5 4 6 3 3 3 2 2 1 1 2 3 4 5 7 7
1 1 1 1 1 1 1 1 1 0 1 1 1 1 1 1 1 2 2 1 0 2 1 -0 1 1 1 1 1 1 1 1 1 1 2 6 7 7 8 8 8 8 9
1 1 1 1 1 1 1 1 6 6 7 7 7 4 0 5 8 7 7 7 7 8 2 1 1 1 1 1 1 1 2 3 3 5 6 6 8 8 8 9 8 7 7
1 1 1 2 1 1 1 1 2 3 8 8 9 7 6 7 9 9 9 10 10 8 1 1 1 1 1 1 1 2 5 7 6 7 7 8 8 8 9 7 7 7 7
1 6 1 1 1 1 1 1 1 1 2 1 7 5 8 9 9 10 10 8 3 4 1 1 1 1 1 2 4 5 7 6 8 8 9 8 7 7 7 7 7 8 8
1 1 1 1 1 1 1 1 1 1 1 1 1 6 8 11 11 11 10 0 1 1 1 1 1 2 3 5 5 6 7 6 7 6 5 6 7 7 8 8 7 11 9
1 4 3 1 1 1 1 1 1 1 1 2 2 2 4 5 3 3 2 1 1 1 1 1 3 4 4 6 5 5 6 7 6 7 7 7 7 7 7 7 6 6 6
1 1 5 1 1 1 1 1 1 1 2 2 1 2 8 3 3 2 1 1 1 1 2 3 4 5 4 5 6 6 7 8 8 8 8 7 6 7 5 5 6 5 5
1 1 1 1 1 1 1 1 2 1 1 2 1 4 11 1 1 1 1 1 0 2 3 4 4 4 6 6 7 8 8 9 8 7 7 7 6 6 5 5 5 5 5
1 1 1 1 1 3 1 1 2 2 2 1 1 2 2 1 1 1 3 3 4 4 4 4 5 6 7 7 7 8 9 8 8 7 7 6 6 6 5 4 5 5 5
1 1 1 1 2 1 2 2 2 6 2 1 1 1 1 1 3 3 4 4 4 5 5 7 8 9 9 8 8 8 7 8 7 6 6 6 6 5 4 4 5 4 4
1 1 1 1 1 2 2 1 1 1 1 1 1 1 2 3 4 4 5 6 7 8 9 9 9 9 8 8 8 9 13 14 9 12 6 5 5 4 4 4 4 4 4
1 1 1 1 1 1 2 2 2 1 2 2 2 3 4 5 6 7 7 8 9 10 10 9 9 8 8 9 10 14 14 14 10 13 7 4 5 4 5 5 5 4 4